Tracking 17925 objects as of 19-February-2017
HD Live streaming from Space Station
objects crossing your sky now

SDS-4

Track SDS-4 now!
10-day predictions
SDS-4 is classified as:


NORAD ID: 38339
Int'l Code: 2012-025C
Perigee: 662.5 km
Apogee: 671.8 km
Inclination: 98.4 °
Period: 97.9 minutes
Semi major axis: 7038 km
RCS: 0.47 m2 (medium)
Launch date: May 17, 2012
Source: Japan (JPN)
Launch site: TANEGASHIMA SPACE CENTER (TNSTA)
Your satellite tracking list
Your tracking list is empty





NASA's NSSDC Master Catalog

Two Line Element Set (TLE):
1 38339U 12025C   17049.54095498  .00000115  00000-0  27859-4 0  9993
2 38339  98.3892  39.5806 0006563 297.1177  62.9358 14.70333810255164
Source of the keplerian elements: AFSPC